Hourly Data Report for October 11, 2019

QUALICUM BEACH AIRPORT
BRITISH COLUMBIA
Current Station Operator: ECCC - MSC

49°20'14.000" N
124°23'38.000" W
58.20 m
1026562
71766
VOQ

Download Data

Hourly Data (October 2019)
Hourly Data Report for October 11, 2019
TIME
LST
Temp Definition
°C
Dew Point Definition
°C
Rel Hum Definition
%
Precip. Amount Definition
mm

Wind Dir Definition
10's deg

Wind Spd Definition
km/h
Visibility Definition
km
Stn Press Definition
kPa
Hmdx Definition


Wind Chill Definition


Weather Definition


00:00 1.1 0.6 96 0.0 27 2   101.97     LegendNANA
01:00 0.7 0.1 95 0.0 25 2   101.97     LegendNANA
02:00 0.1 -0.5 96 0.0 25 1   101.92     LegendNANA
03:00 -0.3 -0.7 97 0.0 26 2   101.87   -1 LegendNANA
04:00 0.0 -0.5 97 0.0 0 1   101.83   0 LegendNANA
05:00 -0.2 -0.6 97 0.0 0 1   101.79   -1 LegendNANA
06:00 -0.6 -0.9 97 0.0 0 1   101.76   -1 LegendNANA
07:00 -0.4 -0.8 97 0.0 0 1   101.75   -1 LegendNANA
08:00 3.4 2.4 93 0.0 0 1   101.73     LegendNANA
09:00 6.0 3.7 85 0.0   0   101.69     LegendNANA
10:00 9.8 5.3 73 0.0 18 4   101.64     LegendNANA
11:00 10.1 5.3 72 0.0 1 5   101.58     LegendNANA
12:00 11.0 5.3 68 0.0 34 5   101.50     LegendNANA
13:00 10.9 5.0 67 0.0 7 6   101.42     LegendNANA
14:00 11.0 5.3 68 0.0 9 7   101.34     LegendNANA
15:00 10.7 5.4 70 0.0 7 5   101.27     LegendNANA
16:00 10.2 6.0 75 0.0 10 5   101.22     LegendNANA
17:00 9.5 5.9 78 0.0 8 3   101.19     LegendNANA
18:00 7.7 5.6 86 0.0 23 2   101.16     LegendNANA
19:00 6.6 5.1 90 0.0 24 1   101.14     LegendNANA
20:00 6.1 4.9 92 0.0   0   101.12     LegendNANA
21:00 6.4 5.3 92 0.0 26 1   101.11     LegendNANA
22:00 6.7 5.3 91 0.0 15 1   101.08     LegendNANA
23:00 7.0 5.7 91 0.0 29 3   101.09     LegendNANA

Notes on Data Quality.

Legend

  • E = Estimated
  • M = Missing
  • NA = Not Available*
  • [empty] = Indicates an unobserved value
Date modified: